DW6083 Weather Reports


Display with metric or nautical units.
time (UTC)temp
F
wind
direction
speed
MPH
gust
MPH
rain 1hr
in
rain 24hr
in
rain mn
in
humidity
%
barometer
mb
20260503231538 0 257 0.0 0.0 0.00 0.00 0.00 1016.3
20260503230032 0 257 0.0 0.0 0.00 0.00 0.00 1016.3
20260503224528 0 265 0.0 0.0 0.00 0.00 0.00 1016.5
20260503223025 0 256 0.0 0.0 0.00 0.00 0.00 1016.4
20260503221529 0 256 0.0 0.0 0.00 0.00 0.00 1016.5
20260503220017 0 227 0.0 0.0 0.00 0.00 0.00 1016.4
20260503214510 0 227 0.0 0.0 0.00 0.00 0.00 1016.5
20260503213010 0 272 0.0 0.0 0.00 0.00 0.00 1016.5
20260503211501 71 266 0.0 2.0 0.00 0.00 0.00 39 1016.7
20260503210059 72 236 0.0 4.0 0.00 0.00 0.00 38 1016.7
20260503204557 72 184 0.0 0.0 0.00 0.00 0.00 39 1016.7
20260503203051 72 324 0.0 0.0 0.00 0.00 0.00 45 1016.8
20260503201547 71 5 0.0 0.0 0.00 0.00 0.00 44 1017.1
20260503200042 72 318 0.0 0.0 0.00 0.00 0.00 43 1017.3
20260503194537 72 223 0.0 0.0 0.00 0.00 0.00 44 1017.7
20260503193040 72 248 0.0 0.0 0.00 0.00 0.00 43 1017.9
20260503191528 70 270 0.0 0.0 0.00 0.00 0.00 47 1018.3
20260503190028 70 204 0.0 0.0 0.00 0.00 0.00 46 1018.6
20260503184525 69 321 0.0 0.0 0.00 0.00 0.00 47 1018.8
20260503183024 70 205 0.0 0.0 0.00 0.00 0.00 49 1018.9
20260503181524 69 173 0.0 0.0 0.00 0.00 0.00 51 1019.1
20260503180005 69 192 0.0 0.0 0.00 0.00 0.00 49 1019.3
20260503174501 67 321 0.0 0.0 0.00 0.00 0.00 53 1019.4
20260503173102 67 222 0.0 0.0 0.00 0.00 0.00 48 1019.5
20260503171552 66 208 0.0 0.0 0.00 0.00 0.00 51 1019.7
20260503081517 42 128 0.0 0.0 0.00 0.00 0.00 1 1017.2
20260503071600 43 128 0.0 0.0 0.00 0.00 0.00 1 1016.7
20260503054528 48 128 0.0 0.0 0.00 0.00 0.00 1 1016.6
20260503053035 48 128 0.0 0.0 0.00 0.00 0.00 1 1016.6
20260503051522 48 128 0.0 0.0 0.00 0.00 0.00 1 1016.4
20260503050015 49 128 0.0 0.0 0.00 0.00 0.00 1 1016.3
20260503044518 49 128 0.0 0.0 0.00 0.00 0.00 1 1016.1
20260503043006 49 128 0.0 0.0 0.00 0.00 0.00 1 1016.1
20260503041503 50 128 0.0 0.0 0.00 0.00 0.00 1 1015.9
20260503040106 51 128 0.0 0.0 0.00 0.00 0.00 1 1015.7
20260503034558 51 128 0.0 0.0 0.00 0.00 0.00 1 1015.8
20260503033048 51 128 0.0 0.0 0.00 0.00 0.00 1 1015.7
20260503031544 51 128 0.0 0.0 0.00 0.00 0.00 1 1015.5
20260503030042 52 128 0.0 0.0 0.00 0.00 0.00 1 1015.5
20260503024534 52 128 0.0 0.0 0.00 0.00 0.00 1 1015.4
20260503023032 52 128 0.0 0.0 0.00 0.00 0.00 1 1015.1
20260503021525 53 128 0.0 0.0 0.00 0.00 0.00 1 1015.0
20260503020032 53 128 0.0 1.0 0.00 0.00 0.00 1 1014.8
20260503014516 54 128 0.0 1.0 0.00 0.00 0.00 1 1014.4
20260503013012 55 5 0.0 0.0 0.00 0.00 0.00 1 1014.9
20260503011507 56 5 0.0 0.0 0.00 0.00 0.00 1 1014.8
20260503010005 57 342 0.0 0.0 0.00 0.00 0.00 1 1014.5
20260503004606 58 169 0.0 0.0 0.00 0.00 0.00 1 1013.1
20260503003103 59 169 0.0 0.0 0.00 0.00 0.00 1 1012.6
20260503001555 59 169 0.0 0.0 0.00 0.00 0.00 1 1012.3
20260503000051 60 169 0.0 0.0 0.00 0.00 0.00 6 1012.2
20260502234554 61 169 0.0 0.0 0.00 0.00 0.00 17 1012.0
20260502233040 62 169 0.0 0.0 0.00 0.00 0.00 21 1011.8